#timestamp,LO_Frequency,Hit,StdDev 
1455940815.4,286047004.5,P
1455940835.2,286047006.5,P
1455940855.0,286047008.6,P
1455940855.9,286047008.6,Y
1455940875.8,286047002.0,P
1455940895.6,286047002.7,N
1455940915.4,286047004.1,N
1455940935.3,286047005.2,Y
1455940955.1,286046999.8,P
1455940975.8,286047000.7,N
1455940995.7,286046998.9,N
1455941015.5,286046999.5,N
1455941035.3,286047001.0,N
1455941055.2,286046998.2,N
1455941075.9,286046999.2,N
1455941095.7,286046999.6,N
1455941115.6,286047000.6,N
1455941135.4,286046999.3,N
1455941155.2,286047000.2,N
1455941175.0,286046998.7,N
1455941175.9,286046998.7,N
1455941195.8,286046997.7,N
1455941215.6,286046994.9,Y
1455941235.4,286046995.1,P
1455941255.3,286046996.0,N
1455941275.1,286046994.1,N
1455941295.8,286046994.6,N
1455941315.7,286046990.8,Y
1455941335.5,286046990.2,P
1455941355.3,286046989.1,P
1455941375.2,286046989.8,P
1455941395.9,286046988.1,Y
1455941415.7,286046995.7,P
1455941435.6,286046993.7,N
1455941455.4,286046994.4,P
1455941475.2,286046995.7,N
1455941495.1,286046994.3,Y
1455941496.0,286046994.3,P
1455941515.8,286046998.6,P
1455941535.6,286046998.6,N
1455941555.5,286047004.4,N
1455941575.3,286047001.5,N
1455941595.1,286047001.6,N
1455941615.9,286047001.5,N
1455941635.7,286047004.3,N
1455941655.5,286047006.8,N
1455941675.4,286047005.0,N
1455941695.2,286047003.3,N
1455941715.0,286047006.6,N
1455941715.9,286047006.6,N
1455941735.8,286047010.0,N
1455941755.6,286047009.5,N
1455941775.4,286047010.5,N
1455941795.2,286047010.6,N
1455941815.1,286047009.0,N
1455941816.0,286047009.0,N
1455941835.8,286047006.9,N
1455941855.6,286047010.3,N
1455941875.5,286047010.5,N
1455941895.3,286047010.1,N
1455941915.1,286047013.9,N
1455941935.9,286047014.7,N
1455941955.7,286047015.1,N
1455941975.5,286047017.2,Y
1455941995.4,286047011.8,P
1455942015.2,286047010.9,P
1455942035.0,286047011.9,P
1455942035.9,286047011.9,Y
1455942055.8,286047002.5,P
1455942075.6,286047002.7,N
1455942095.4,286046999.8,N
1455942115.3,286046998.7,N
1455942135.1,286046997.4,N
1455942155.8,286046997.2,N
1455942175.7,286046999.0,N
1455942195.5,286046998.8,N
1455942215.3,286047002.8,N
1455942235.2,286047003.8,N
1455942255.9,286047005.9,N
1455942275.7,286047006.5,N
1455942295.6,286047007.7,N
1455942315.4,286047009.9,N
1455942335.2,286047011.5,N
1455942355.1,286047014.3,Y
1455942356.0,286047014.3,P
1455942375.8,286047008.2,N
1455942395.6,286047010.1,N
1455942415.4,286047010.9,N
1455942435.3,286047014.7,Y
1455942455.1,286047008.1,P
1455942475.9,286047010.1,P
1455942495.7,286047011.1,P
1455942515.5,286047015.3,Y
1455942535.4,286047005.0,P
1455942555.2,286047007.5,P
1455942575.0,286047008.1,P
1455942575.9,286047008.1,Y
1455942595.8,286047001.5,P
1455942615.6,286047004.1,N
1455942635.4,286047006.6,N
1455942655.2,286047003.0,N
1455942675.1,286047003.2,N
1455942676.0,286047003.2,N
1455942695.8,286047003.0,N
1455942715.6,286047003.4,N
1455942735.5,286047003.0,N
1455942755.3,286047003.2,N
1455942775.1,286047002.4,N
1455942795.9,286047003.9,N
1455942815.7,286047003.4,N
1455942835.5,286047004.9,Y
1455942855.4,286047001.2,P
1455942875.2,286046999.2,N
1455942895.0,286047000.8,N
1455942895.9,286047000.8,N
1455942915.8,286046998.4,N
1455942935.6,286046996.7,N
1455942955.4,286046997.3,N
1455942975.3,286046995.4,N
1455942995.1,286046995.8,N
1455942996.0,286046995.8,N
1455943015.8,286046993.2,N
1455943035.7,286046993.4,N
1455943055.5,286046997.0,N
1455943075.3,286046998.3,N
1455943095.1,286046999.3,N
1455943115.9,286046996.9,N
1455943135.7,286046996.5,N
1455943155.5,286046993.4,N
1455943175.4,286046995.6,N
1455943195.2,286046995.9,N
1455943215.0,286046996.3,N
1455943215.9,286046996.3,N
1455943235.8,286046994.3,N
1455943255.6,286046993.1,N
1455943275.4,286046991.5,Y
1455943295.3,286046991.2,P
1455943315.1,286046989.6,P
1455943335.8,286046988.4,P
1455943355.7,286046987.3,Y
1455943375.5,286046996.4,P
1455943395.3,286046996.4,N
1455943415.2,286046990.5,P
1455943435.9,286046991.6,Y
1455943455.7,286046997.8,P
1455943475.6,286046996.3,N
1455943495.4,286046993.5,P
1455943515.2,286046995.7,N
1455943535.1,286046995.8,N
1455943536.0,286046995.8,N
1455943555.8,286046995.2,Y
1455943575.6,286046997.1,P
1455943595.5,286046999.4,N
1455943615.3,286046996.8,N
1455943635.1,286046998.6,N
1455943655.9,286046995.3,Y
1455943675.7,286046996.8,P
1455943695.5,286046998.9,P
1455943715.4,286046998.8,N
1455943735.2,286046996.9,Y
1455943755.0,286046998.3,P
1455943755.9,286046998.3,P
1455943775.8,286046996.9,P
1455943795.6,286046996.5,Y
1455943815.4,286047001.8,P
1455943835.3,286047002.0,N
1455943855.1,286047004.3,N
1455943875.8,286047003.2,N
1455943895.7,286047002.0,N
1455943915.5,286047004.2,N
1455943935.3,286047001.7,N
1455943955.2,286047002.5,N
1455943975.9,286047002.1,N
1455943995.7,286047001.4,N
1455944015.6,286047003.3,N
1455944035.4,286047001.8,N
1455944055.2,286047006.7,Y
1455944075.1,286047001.6,P
1455944076.0,286047001.6,P
1455944095.8,286047002.7,P
1455944115.6,286047002.6,Y
1455944135.5,286046998.2,P
1455944155.3,286046998.7,N
1455944175.1,286047000.5,N
1455944195.9,286047006.8,Y
1455944215.7,286047005.0,P
1455944235.5,286047003.2,N
1455944255.4,286047000.6,N
1455944275.2,286047000.9,N
1455944295.0,286047000.9,N
1455944295.9,286047000.9,N
1455944315.8,286046999.4,N
1455944335.6,286047000.8,N
1455944355.4,286046996.8,N
1455944375.2,286046997.1,N
1455944395.1,286046998.6,N
1455944396.0,286046998.6,N
